Location: *
(37.5724°S, 58.0067°E)
Time: 07:07:32
(UTC+00:00)

Envisat - Pass Details

Date: 30 November 2022
Orbit: 763 x 765 km, 98.2° (Epoch: 07 February)

Event Time Altitude Azimuth Distance (km) Brightness Sun altitude
Rises 23:17:06 0° 21° (NNE) 3,222 6.0 -14.3°
Reaches altitude 10° 23:19:24 10° 23° (NNE) 2,303 5.3 -13.9°
Maximum altitude 23:24:27 68° 105° (ESE) 830 3.4 -13.2°
Drops below altitude 10° 23:29:33 10° 187° (S) 2,332 6.0 -12.4°
Sets 23:31:54 0° 189° (S) 3,266 6.7 -12.1°
